QPF
0.01 0.01 0.02 0.02 0.02 0.02 0.03 0.04 0.04 0.04 0.03 0.03 0.03 0.03 0.04 0.07 0.10 0.11 0.11 0.09 0.08 0.07 0.06 0.06 0.06 0.04 0.03 0.03 0.02 0.02 0.03 0.04 0.03 0.02 0.02 0.02 0.02 0.01 0.01 0.01 0.01 0.02 0.02
0.01 0.01 0.01 0.02 0.02 0.02 0.03 0.04 0.05 0.05 0.03 0.03 0.03 0.03 0.04 0.05 0.07 0.08 0.09 0.10 0.09 0.08 0.08 0.07 0.07 0.06 0.04 0.02 0.01 0.02 0.04 0.05 0.04 0.03 0.02 0.02 0.02 0.02 0.01 0.01 0.01 0.02 0.02
0.01 0.01 0.01 0.02 0.02 0.02 0.02 0.03 0.04 0.05 0.04 0.03 0.03 0.03 0.03 0.03 0.05 0.06 0.07 0.08 0.08 0.08 0.08 0.08 0.07 0.07 0.05 0.03 0.02 0.02 0.02 0.04 0.04 0.04 0.03 0.03 0.03 0.02 0.01 0.01 0.01 0.01 0.02
0.01 0.01 0.01 0.02 0.02 0.02 0.02 0.02 0.03 0.04 0.04 0.03 0.03 0.02 0.02 0.02 0.03 0.04 0.05 0.06 0.06 0.07 0.08 0.07 0.08 0.07 0.06 0.04 0.03 0.03 0.03 0.03 0.04 0.04 0.03 0.03 0.03 0.02 0.02 0.01 0.01 0.01 0.01
0.02 0.01 0.01 0.02 0.02 0.02 0.02 0.02 0.02 0.02 0.03 0.03 0.02 0.02 0.02 0.02 0.02 0.03 0.04 0.04 0.05 0.06 0.07 0.08 0.08 0.07 0.06 0.05 0.03 0.03 0.03 0.04 0.04 0.04 0.03 0.03 0.03 0.02 0.02 0.02 0.02 0.02 0.01
0.01 0.01 0.01 0.01 0.02 0.03 0.03 0.03 0.02 0.02 0.03 0.03 0.02 0.02 0.03 0.03 0.03 0.03 0.04 0.03 0.04 0.04 0.05 0.07 0.08 0.07 0.07 0.05 0.04 0.03 0.03 0.03 0.03 0.03 0.03 0.03 0.03 0.03 0.03 0.02 0.02 0.02 0.02
0.02 0.01 0.01 0.01 0.02 0.02 0.03 0.03 0.02 0.03 0.04 0.04 0.04 0.04 0.04 0.04 0.04 0.04 0.04 0.04 0.03 0.03 0.04 0.04 0.05 0.06 0.07 0.06 0.05 0.04 0.03 0.03 0.03 0.03 0.03 0.03 0.03 0.03 0.03 0.03 0.03 0.03 0.03
0.01 0.01 0.01 0.01 0.01 0.02 0.03 0.03 0.02 0.03 0.03 0.04 0.04 0.04 0.04 0.05 0.04 0.04 0.04 0.04 0.04 0.03 0.03 0.03 0.03 0.04 0.05 0.05 0.05 0.05 0.04 0.03 0.03 0.03 0.03 0.03 0.03 0.03 0.03 0.03 0.03 0.03 0.03
0.01 0.01 0.01 0.01 0.01 0.02 0.03 0.03 0.03 0.03 0.03 0.03 0.03 0.03 0.04 0.04 0.05 0.05 0.05 0.05 0.04 0.03 0.03 0.02 0.02 0.03 0.03 0.03 0.04 0.04 0.04 0.04 0.04 0.03 0.03 0.02 0.02 0.02 0.02 0.03 0.03 0.03 0.03
0.01 0.01 0.01 0.01 0.02 0.02 0.02 0.03 0.03 0.03 0.03 0.03 0.03 0.03 0.04 0.04 0.05 0.06 0.06 0.06 0.05 0.05 0.04 0.02 0.02 0.02 0.02 0.02 0.03 0.03 0.02 0.03 0.03 0.03 0.03 0.03 0.03 0.02 0.02 0.02 0.03 0.03 0.03
0.01 0.01 0.02 0.02 0.02 0.02 0.02 0.02 0.03 0.03 0.02 0.03 0.03 0.04 0.04 0.04 0.05 0.06 0.07 0.07 0.07 0.06 0.05 0.03 0.03 0.03 0.03 0.02 0.02 0.02 0.02 0.02 0.02 0.02 0.02 0.02 0.03 0.03 0.03 0.03 0.03 0.03 0.04
0.01 0.01 0.01 0.02 0.02 0.02 0.02 0.02 0.02 0.03 0.03 0.03 0.03 0.03 0.04 0.04 0.05 0.05 0.06 0.06 0.07 0.07 0.06 0.05 0.03 0.03 0.03 0.04 0.03 0.03 0.03 0.03 0.02 0.02 0.01 0.01 0.01 0.02 0.02 0.03 0.03 0.03 0.03
0.01 0.01 0.01 0.02 0.02 0.03 0.03 0.03 0.02 0.02 0.03 0.03 0.03 0.03 0.03 0.04 0.04 0.04 0.05 0.06 0.06 0.06 0.06 0.06 0.05 0.04 0.03 0.03 0.04 0.04 0.04 0.04 0.04 0.02 0.01 0.01 0.01 0.01 0.01 0.02 0.02 0.02 0.03
0.01 0.01 0.01 0.01 0.02 0.03 0.04 0.05 0.04 0.03 0.03 0.03 0.03 0.02 0.03 0.03 0.04 0.04 0.04 0.04 0.04 0.05 0.06 0.06 0.06 0.06 0.05 0.04 0.03 0.03 0.04 0.05 0.05 0.04 0.03 0.02 0.01 0.01 0.01 0.01 0.01 0.01 0.02
0.01 0.01 0.01 0.02 0.02 0.03 0.04 0.05 0.06 0.06 0.05 0.04 0.03 0.02 0.03 0.03 0.03 0.03 0.04 0.04 0.04 0.04 0.05 0.05 0.05 0.06 0.06 0.06 0.05 0.04 0.03 0.04 0.05 0.04 0.04 0.04 0.03 0.02 0.02 0.02 0.02 0.02 0.02
0.01 0.01 0.01 0.01 0.02 0.02 0.03 0.03 0.04 0.05 0.06 0.05 0.04 0.03 0.02 0.03 0.03 0.03 0.03 0.04 0.04 0.04 0.04 0.04 0.04 0.04 0.05 0.05 0.06 0.05 0.05 0.04 0.05 0.05 0.04 0.04 0.04 0.04 0.03 0.03 0.03 0.02 0.02
0.01 0.01 0.01 0.01 0.01 0.02 0.02 0.02 0.03 0.03 0.05 0.05 0.05 0.04 0.03 0.02 0.03 0.03 0.03 0.04 0.04 0.04 0.04 0.04 0.03 0.03 0.04 0.04 0.04 0.04 0.05 0.05 0.05 0.05 0.05 0.05 0.04 0.05 0.04 0.04 0.04 0.03 0.02
0.01 0.01 0.01 0.01 0.01 0.01 0.02 0.02 0.02 0.02 0.03 0.03 0.04 0.04 0.04 0.02 0.02 0.02 0.02 0.03 0.03 0.04 0.04 0.03 0.03 0.02 0.02 0.02 0.03 0.03 0.04 0.05 0.05 0.04 0.04 0.04 0.03 0.03 0.04 0.04 0.04 0.03 0.03
0.01 0.01 0.01 0.01 0.02 0.02 0.02 0.03 0.03 0.03 0.02 0.02 0.03 0.03 0.03 0.03 0.02 0.02 0.02 0.02 0.03 0.03 0.03 0.03 0.03 0.03 0.02 0.02 0.02 0.02 0.03 0.04 0.04 0.04 0.03 0.03 0.03 0.03 0.03 0.03 0.04 0.03 0.03
0.01 0.01 0.01 0.01 0.02 0.02 0.02 0.03 0.03 0.03 0.03 0.02 0.02 0.02 0.02 0.02 0.02 0.02 0.02 0.02 0.02 0.02 0.02 0.02 0.03 0.03 0.02 0.02 0.01 0.02 0.02 0.02 0.02 0.02 0.02 0.03 0.02 0.03 0.03 0.03 0.03 0.03 0.03
0.01 0.01 0.01 0.01 0.02 0.02 0.02 0.03 0.03 0.03 0.03 0.02 0.02 0.02 0.02 0.02 0.02 0.02 0.02 0.02 0.01 0.01 0.01 0.01 0.02 0.02 0.02 0.03 0.03 0.02 0.02 0.02 0.02 0.02 0.02 0.02 0.03 0.03 0.03 0.03 0.03 0.03 0.03
0.01 0.01 0.01 0.01 0.01 0.02 0.02 0.03 0.03 0.03 0.03 0.02 0.02 0.02 0.02 0.01 0.01 0.01 0.01 0.02 0.02 0.01 0.01 0.01 0.01 0.01 0.02 0.03 0.03 0.04 0.03 0.02 0.02 0.02 0.02 0.02 0.03 0.04 0.04 0.04 0.04 0.04 0.04
0.01 0.01 0.01 0.01 0.01 0.02 0.02 0.02 0.02 0.02 0.02 0.02 0.02 0.02 0.02 0.02 0.02 0.02 0.02 0.02 0.02 0.02 0.02 0.01 0.01 0.01 0.01 0.02 0.03 0.03 0.04 0.04 0.03 0.03 0.03 0.03 0.03 0.04 0.04 0.05 0.04 0.04 0.04
0.01 0.01 0.01 0.01 0.01 0.02 0.02 0.02 0.01 0.02 0.02 0.02 0.02 0.02 0.02 0.02 0.02 0.02 0.02 0.02 0.02 0.02 0.02 0.02 0.02 0.02 0.02 0.02 0.02 0.03 0.03 0.04 0.04 0.04 0.04 0.04 0.04 0.04 0.04 0.05 0.04 0.04 0.04
0.02 0.02 0.01 0.01 0.01 0.02 0.02 0.01 0.01 0.01 0.02 0.02 0.02 0.02 0.02 0.02 0.02 0.02 0.03 0.03 0.03 0.03 0.03 0.03 0.02 0.02 0.02 0.03 0.02 0.02 0.02 0.03 0.03 0.04 0.05 0.05 0.04 0.04 0.04 0.04 0.04 0.04 0.04
0.01 0.01 0.01 0.02 0.01 0.01 0.01 0.01 0.01 0.01 0.01 0.01 0.02 0.01 0.02 0.02 0.02 0.02 0.03 0.03 0.03 0.03 0.03 0.03 0.03 0.03 0.03 0.03 0.04 0.03 0.03 0.04 0.05 0.05 0.06 0.05 0.04 0.03 0.03 0.03 0.03 0.03 0.03
MSLP
1003.97 1004.07 1004.21 1004.42 1004.69 1005.07 1005.53 1006.08 1006.70 1007.35 1008.01 1008.64 1009.24 1009.79 1010.31 1010.79 1011.27 1011.75 1012.25 1012.78 1013.34 1013.94 1014.56 1015.22 1015.90 1016.62 1017.36 1018.13 1018.92 1019.72 1020.52 1021.32 1022.08 1022.80 1023.45 1024.04 1024.54 1024.96 1025.31 1025.58 1025.81 1026.00 1026.19
1004.18 1004.18 1004.20 1004.27 1004.42 1004.66 1005.03 1005.51 1006.09 1006.74 1007.41 1008.07 1008.69 1009.26 1009.78 1010.26 1010.73 1011.20 1011.69 1012.22 1012.79 1013.40 1014.03 1014.70 1015.38 1016.09 1016.82 1017.57 1018.35 1019.16 1020.00 1020.84 1021.67 1022.48 1023.23 1023.91 1024.51 1025.00 1025.41 1025.73 1025.99 1026.21 1026.41
1005.19 1005.08 1004.94 1004.81 1004.75 1004.80 1004.97 1005.29 1005.74 1006.29 1006.90 1007.52 1008.11 1008.66 1009.17 1009.64 1010.10 1010.57 1011.07 1011.61 1012.19 1012.82 1013.47 1014.14 1014.82 1015.51 1016.21 1016.93 1017.68 1018.47 1019.30 1020.16 1021.03 1021.89 1022.72 1023.48 1024.16 1024.76 1025.25 1025.66 1025.99 1026.28 1026.54
1006.99 1006.74 1006.42 1006.07 1005.75 1005.53 1005.44 1005.52 1005.75 1006.12 1006.57 1007.06 1007.57 1008.05 1008.50 1008.94 1009.38 1009.84 1010.35 1010.91 1011.52 1012.16 1012.84 1013.52 1014.19 1014.86 1015.53 1016.22 1016.93 1017.68 1018.48 1019.32 1020.20 1021.08 1021.95 1022.77 1023.53 1024.21 1024.81 1025.32 1025.77 1026.16 1026.52
1009.36 1008.99 1008.48 1007.90 1007.32 1006.80 1006.41 1006.19 1006.14 1006.25 1006.47 1006.77 1007.11 1007.46 1007.82 1008.19 1008.58 1009.02 1009.52 1010.10 1010.73 1011.41 1012.10 1012.80 1013.49 1014.15 1014.80 1015.45 1016.12 1016.83 1017.59 1018.40 1019.25 1020.13 1021.01 1021.86 1022.68 1023.44 1024.13 1024.76 1025.33 1025.86 1026.34
1011.99 1011.52 1010.86 1010.08 1009.25 1008.46 1007.77 1007.23 1006.87 1006.68 1006.62 1006.67 1006.79 1006.96 1007.16 1007.41 1007.73 1008.12 1008.60 1009.17 1009.82 1010.52 1011.25 1011.98 1012.68 1013.35 1014.00 1014.64 1015.28 1015.96 1016.68 1017.45 1018.27 1019.11 1019.98 1020.84 1021.68 1022.49 1023.27 1024.00 1024.70 1025.36 1025.98
1014.53 1013.99 1013.23 1012.30 1011.28 1010.26 1009.32 1008.50 1007.84 1007.35 1007.00 1006.76 1006.62 1006.55 1006.56 1006.66 1006.85 1007.17 1007.60 1008.15 1008.80 1009.52 1010.28 1011.03 1011.77 1012.47 1013.14 1013.78 1014.43 1015.09 1015.78 1016.52 1017.29 1018.10 1018.93 1019.78 1020.62 1021.46 1022.29 1023.11 1023.92 1024.71 1025.47
1016.66 1016.09 1015.27 1014.27 1013.14 1011.98 1010.86 1009.83 1008.93 1008.16 1007.52 1007.00 1006.58 1006.26 1006.04 1005.95 1006.00 1006.20 1006.56 1007.06 1007.70 1008.42 1009.19 1009.98 1010.75 1011.49 1012.20 1012.88 1013.55 1014.22 1014.91 1015.63 1016.37 1017.14 1017.94 1018.75 1019.57 1020.41 1021.27 1022.15 1023.04 1023.94 1024.82
1018.20 1017.61 1016.79 1015.77 1014.62 1013.41 1012.21 1011.05 1009.98 1009.00 1008.12 1007.33 1006.64 1006.06 1005.61 1005.31 1005.19 1005.25 1005.51 1005.96 1006.55 1007.26 1008.04 1008.85 1009.66 1010.45 1011.20 1011.93 1012.64 1013.34 1014.05 1014.77 1015.51 1016.25 1017.01 1017.78 1018.57 1019.39 1020.25 1021.16 1022.10 1023.07 1024.05
1019.07 1018.48 1017.68 1016.71 1015.62 1014.45 1013.24 1012.05 1010.88 1009.75 1008.68 1007.67 1006.74 1005.91 1005.23 1004.72 1004.43 1004.35 1004.51 1004.87 1005.42 1006.10 1006.88 1007.70 1008.54 1009.36 1010.16 1010.94 1011.70 1012.45 1013.20 1013.94 1014.68 1015.41 1016.15 1016.88 1017.64 1018.43 1019.26 1020.17 1021.13 1022.15 1023.20
1019.37 1018.76 1018.00 1017.11 1016.12 1015.04 1013.92 1012.74 1011.54 1010.33 1009.11 1007.92 1006.78 1005.74 1004.85 1004.16 1003.70 1003.50 1003.56 1003.85 1004.35 1005.00 1005.76 1006.58 1007.43 1008.28 1009.11 1009.93 1010.74 1011.54 1012.32 1013.10 1013.86 1014.60 1015.32 1016.04 1016.76 1017.51 1018.31 1019.19 1020.14 1021.17 1022.25
1019.28 1018.64 1017.92 1017.12 1016.23 1015.28 1014.24 1013.12 1011.92 1010.65 1009.32 1007.98 1006.67 1005.46 1004.40 1003.56 1002.98 1002.68 1002.66 1002.91 1003.37 1004.00 1004.74 1005.55 1006.40 1007.24 1008.09 1008.93 1009.77 1010.60 1011.43 1012.24 1013.02 1013.78 1014.50 1015.20 1015.89 1016.60 1017.36 1018.20 1019.12 1020.14 1021.23
1019.02 1018.33 1017.62 1016.88 1016.09 1015.23 1014.27 1013.20 1011.99 1010.66 1009.24 1007.77 1006.32 1004.97 1003.79 1002.85 1002.20 1001.85 1001.81 1002.04 1002.49 1003.11 1003.85 1004.64 1005.47 1006.30 1007.13 1007.97 1008.81 1009.65 1010.49 1011.32 1012.13 1012.90 1013.62 1014.32 1014.99 1015.67 1016.39 1017.18 1018.06 1019.04 1020.12
1018.74 1017.98 1017.26 1016.54 1015.80 1014.98 1014.06 1012.98 1011.73 1010.33 1008.81 1007.23 1005.67 1004.21 1002.96 1001.98 1001.31 1000.98 1000.97 1001.23 1001.71 1002.36 1003.09 1003.88 1004.67 1005.47 1006.26 1007.06 1007.86 1008.68 1009.51 1010.34 1011.15 1011.93 1012.67 1013.36 1014.02 1014.68 1015.36 1016.11 1016.95 1017.89 1018.93
1018.55 1017.70 1016.93 1016.18 1015.42 1014.59 1013.62 1012.48 1011.14 1009.63 1007.99 1006.30 1004.66 1003.15 1001.88 1000.91 1000.30 1000.05 1000.12 1000.47 1001.02 1001.71 1002.47 1003.24 1004.01 1004.75 1005.47 1006.20 1006.94 1007.71 1008.49 1009.30 1010.09 1010.87 1011.60 1012.29 1012.95 1013.59 1014.26 1014.97 1015.77 1016.68 1017.68
1018.44 1017.50 1016.65 1015.82 1014.98 1014.05 1012.96 1011.69 1010.22 1008.57 1006.80 1005.02 1003.31 1001.80 1000.56 999.68 999.18 999.06 999.27 999.75 1000.41 1001.17 1001.96 1002.73 1003.45 1004.12 1004.76 1005.40 1006.04 1006.72 1007.44 1008.19 1008.95 1009.70 1010.42 1011.12 1011.78 1012.42 1013.08 1013.78 1014.56 1015.44 1016.43
1018.36 1017.33 1016.37 1015.43 1014.44 1013.35 1012.09 1010.64 1008.99 1007.18 1005.30 1003.44 1001.72 1000.23 999.09 998.34 998.01 998.07 998.46 999.09 999.88 1000.72 1001.55 1002.31 1002.99 1003.58 1004.12 1004.64 1005.16 1005.73 1006.36 1007.03 1007.74 1008.45 1009.17 1009.86 1010.53 1011.19 1011.87 1012.58 1013.37 1014.24 1015.23
1018.25 1017.12 1016.03 1014.94 1013.77 1012.48 1011.02 1009.37 1007.54 1005.59 1003.61 1001.71 1000.01 998.62 997.61 997.04 996.91 997.18 997.76 998.56 999.46 1000.39 1001.24 1001.99 1002.60 1003.10 1003.53 1003.92 1004.32 1004.77 1005.28 1005.87 1006.51 1007.19 1007.89 1008.59 1009.28 1009.97 1010.68 1011.44 1012.26 1013.16 1014.16
1018.04 1016.81 1015.59 1014.34 1012.99 1011.49 1009.82 1007.98 1005.99 1003.93 1001.90 1000.02 998.40 997.14 996.31 995.95 996.04 996.50 997.27 998.21 999.21 1000.19 1001.05 1001.75 1002.29 1002.70 1003.00 1003.27 1003.54 1003.87 1004.28 1004.78 1005.36 1006.00 1006.68 1007.39 1008.12 1008.86 1009.63 1010.44 1011.32 1012.28 1013.33
1017.75 1016.43 1015.08 1013.67 1012.14 1010.46 1008.61 1006.62 1004.52 1002.42 1000.40 998.59 997.10 996.01 995.38 995.23 995.52 996.17 997.08 998.12 999.18 1000.16 1001.00 1001.64 1002.09 1002.38 1002.58 1002.72 1002.88 1003.11 1003.42 1003.85 1004.37 1004.99 1005.66 1006.39 1007.16 1007.96 1008.80 1009.69 1010.65 1011.68 1012.79
1017.43 1016.03 1014.57 1013.02 1011.34 1009.52 1007.55 1005.47 1003.34 1001.25 999.30 997.62 996.30 995.40 994.98 995.02 995.48 996.27 997.26 998.35 999.41 1000.36 1001.12 1001.67 1002.02 1002.21 1002.30 1002.35 1002.42 1002.56 1002.81 1003.18 1003.67 1004.27 1004.95 1005.70 1006.51 1007.37 1008.29 1009.27 1010.31 1011.42 1012.60
1017.19 1015.72 1014.18 1012.53 1010.75 1008.84 1006.81 1004.70 1002.60 1000.59 998.77 997.26 996.12 995.43 995.19 995.40 995.98 996.84 997.86 998.93 999.93 1000.79 1001.46 1001.90 1002.14 1002.24 1002.24 1002.21 1002.22 1002.32 1002.54 1002.88 1003.36 1003.96 1004.65 1005.43 1006.28 1007.19 1008.17 1009.23 1010.34 1011.52 1012.76
1017.14 1015.63 1014.03 1012.32 1010.49 1008.54 1006.51 1004.45 1002.43 1000.55 998.89 997.56 996.62 996.11 996.03 996.35 996.99 997.86 998.85 999.84 1000.73 1001.47 1002.01 1002.34 1002.49 1002.50 1002.45 1002.39 1002.38 1002.47 1002.68 1003.03 1003.52 1004.12 1004.84 1005.64 1006.52 1007.47 1008.49 1009.59 1010.76 1011.99 1013.27
1017.36 1015.83 1014.21 1012.48 1010.65 1008.72 1006.74 1004.76 1002.87 1001.14 999.67 998.52 997.75 997.39 997.41 997.79 998.44 999.26 1000.15 1001.02 1001.78 1002.38 1002.79 1003.01 1003.08 1003.05 1002.97 1002.92 1002.93 1003.04 1003.29 1003.67 1004.18 1004.80 1005.53 1006.34 1007.23 1008.20 1009.24 1010.35 1011.53 1012.77 1014.06
1017.87 1016.36 1014.75 1013.04 1011.24 1009.37 1007.48 1005.61 1003.86 1002.30 1001.00 1000.01 999.39 999.12 999.21 999.59 1000.20 1000.93 1001.70 1002.42 1003.03 1003.49 1003.79 1003.92 1003.95 1003.90 1003.84 1003.83 1003.89 1004.06 1004.36 1004.79 1005.33 1005.97 1006.70 1007.51 1008.39 1009.34 1010.36 1011.45 1012.60 1013.81 1015.07
1018.65 1017.18 1015.61 1013.95 1012.21 1010.43 1008.64 1006.91 1005.30 1003.89 1002.74 1001.89 1001.36 1001.16 1001.26 1001.61 1002.13 1002.75 1003.38 1003.96 1004.43 1004.77 1004.98 1005.07 1005.08 1005.06 1005.06 1005.11 1005.25 1005.50 1005.86 1006.34 1006.91 1007.56 1008.29 1009.07 1009.92 1010.82 1011.78 1012.81 1013.90 1015.05 1016.24
Thickness
5532 5533 5534 5535 5536 5537 5538 5540 5541 5542 5543 5544 5545 5546 5547 5549 5552 5554 5557 5560 5563 5565 5567 5569 5569 5572 5573 5573 5573 5573 5573 5572 5572 5572 5570 5570 5572 5573 5573 5573 5575 5575 5576
5518 5520 5521 5522 5523 5525 5527 5528 5530 5531 5533 5534 5535 5536 5536 5537 5540 5542 5546 5550 5553 5555 5556 5558 5559 5561 5562 5562 5562 5563 5562 5561 5563 5563 5562 5559 5559 5560 5562 5563 5564 5565 5566
5505 5506 5507 5508 5509 5511 5514 5517 5519 5520 5521 5523 5524 5524 5524 5525 5527 5530 5535 5538 5541 5544 5546 5547 5548 5550 5552 5552 5552 5553 5554 5552 5553 5555 5555 5553 5550 5547 5549 5552 5553 5554 5555
5490 5492 5494 5495 5495 5498 5501 5503 5505 5507 5509 5511 5512 5514 5516 5517 5519 5521 5524 5526 5529 5532 5535 5536 5538 5539 5540 5541 5541 5543 5544 5544 5542 5543 5545 5546 5547 5542 5538 5539 5541 5543 5544
5474 5476 5478 5480 5482 5484 5487 5490 5491 5494 5497 5499 5501 5503 5505 5506 5508 5509 5512 5514 5517 5520 5523 5524 5526 5527 5528 5529 5529 5531 5532 5533 5533 5532 5533 5535 5535 5536 5533 5529 5529 5531 5533
5460 5462 5464 5466 5468 5470 5473 5476 5478 5481 5484 5487 5489 5491 5493 5494 5496 5498 5500 5503 5505 5508 5510 5513 5515 5516 5517 5518 5519 5519 5520 5521 5522 5522 5523 5523 5524 5524 5525 5522 5519 5519 5521
5446 5448 5450 5452 5454 5456 5459 5463 5466 5468 5471 5474 5476 5478 5480 5482 5485 5487 5489 5491 5493 5496 5499 5502 5504 5505 5505 5507 5507 5507 5508 5509 5509 5509 5511 5512 5513 5515 5516 5513 5510 5509 5510
5433 5435 5437 5439 5441 5443 5445 5449 5452 5455 5458 5461 5464 5466 5468 5470 5473 5476 5479 5480 5482 5484 5487 5490 5492 5492 5493 5494 5495 5496 5496 5496 5496 5497 5499 5500 5501 5503 5504 5503 5501 5498 5499
5419 5422 5424 5426 5428 5430 5432 5436 5439 5442 5445 5447 5450 5453 5456 5459 5462 5465 5467 5467 5469 5472 5474 5477 5478 5479 5480 5482 5483 5483 5483 5484 5484 5485 5486 5487 5488 5490 5491 5492 5492 5490 5488
5404 5407 5409 5411 5413 5416 5419 5423 5426 5429 5432 5434 5437 5441 5444 5447 5450 5452 5453 5455 5457 5460 5461 5463 5464 5466 5467 5469 5470 5470 5471 5471 5472 5472 5473 5474 5476 5477 5478 5479 5480 5481 5481
5390 5392 5395 5398 5400 5402 5405 5409 5412 5415 5418 5421 5424 5428 5432 5435 5437 5439 5440 5442 5445 5447 5448 5450 5452 5453 5454 5455 5457 5456 5458 5458 5459 5459 5460 5461 5462 5463 5465 5466 5467 5468 5469
5377 5379 5381 5384 5386 5388 5391 5395 5398 5401 5404 5408 5411 5415 5419 5421 5423 5426 5427 5430 5432 5434 5436 5437 5438 5440 5441 5443 5444 5444 5445 5445 5446 5447 5448 5449 5449 5450 5452 5452 5453 5455 5456
5364 5366 5367 5369 5372 5374 5377 5380 5384 5388 5391 5394 5397 5401 5405 5408 5410 5413 5414 5417 5419 5421 5423 5424 5425 5427 5429 5430 5432 5432 5433 5433 5435 5435 5436 5437 5437 5437 5438 5439 5441 5442 5443
5349 5351 5353 5355 5357 5360 5363 5366 5370 5374 5377 5380 5384 5388 5392 5395 5398 5400 5402 5404 5406 5407 5409 5410 5412 5414 5416 5417 5419 5419 5420 5421 5422 5423 5423 5424 5425 5425 5426 5427 5428 5429 5430
5336 5337 5340 5342 5344 5346 5349 5353 5356 5360 5364 5367 5371 5375 5380 5382 5384 5386 5388 5390 5392 5394 5395 5397 5399 5401 5402 5404 5405 5407 5407 5408 5409 5409 5410 5411 5413 5414 5414 5416 5416 5417 5416
5324 5325 5327 5329 5330 5333 5336 5340 5343 5347 5350 5354 5359 5363 5366 5369 5371 5373 5374 5376 5378 5379 5381 5383 5385 5387 5389 5391 5392 5393 5394 5395 5396 5397 5398 5399 5399 5401 5402 5404 5404 5405 5405
5312 5313 5315 5317 5318 5320 5324 5327 5331 5335 5338 5342 5346 5349 5353 5356 5358 5359 5360 5362 5364 5366 5367 5369 5371 5372 5375 5376 5378 5379 5381 5382 5384 5385 5385 5386 5387 5388 5388 5389 5390 5391 5392
5299 5301 5302 5305 5307 5309 5312 5316 5320 5324 5327 5330 5333 5336 5340 5343 5345 5346 5347 5349 5351 5353 5354 5356 5358 5359 5361 5362 5364 5365 5367 5368 5370 5371 5372 5373 5373 5374 5375 5376 5376 5376 5378
5288 5289 5291 5293 5296 5298 5301 5305 5308 5312 5315 5318 5321 5325 5327 5329 5331 5333 5335 5336 5338 5339 5341 5342 5344 5346 5348 5350 5351 5352 5353 5355 5356 5357 5359 5359 5360 5362 5362 5363 5363 5363 5363
5278 5279 5281 5283 5285 5288 5290 5293 5297 5300 5304 5307 5310 5313 5315 5316 5318 5320 5322 5323 5325 5327 5328 5329 5331 5333 5335 5337 5338 5339 5340 5342 5343 5345 5345 5346 5347 5348 5349 5349 5349 5350 5350
5269 5271 5271 5273 5275 5278 5280 5282 5285 5288 5292 5296 5299 5301 5303 5304 5306 5307 5309 5310 5312 5313 5314 5316 5317 5319 5322 5324 5326 5327 5327 5329 5330 5331 5332 5334 5334 5335 5336 5337 5337 5338 5337
5260 5261 5262 5264 5266 5268 5270 5272 5274 5278 5281 5285 5287 5289 5290 5292 5294 5294 5296 5297 5298 5299 5301 5303 5304 5306 5308 5310 5312 5314 5315 5316 5316 5318 5319 5320 5321 5322 5323 5324 5324 5324 5323
5251 5252 5253 5255 5256 5258 5260 5261 5265 5268 5271 5273 5275 5277 5278 5279 5280 5282 5283 5284 5285 5287 5289 5291 5292 5293 5295 5297 5299 5301 5302 5302 5303 5304 5306 5307 5308 5309 5309 5309 5310 5309 5308
5241 5242 5243 5245 5247 5248 5250 5252 5255 5257 5259 5261 5263 5265 5265 5266 5267 5269 5271 5272 5273 5275 5277 5279 5280 5281 5282 5284 5285 5287 5288 5289 5289 5290 5291 5293 5294 5294 5294 5294 5294 5294 5294
5231 5232 5232 5234 5236 5238 5240 5243 5245 5247 5248 5250 5251 5252 5253 5254 5255 5256 5257 5259 5261 5263 5264 5266 5267 5269 5270 5272 5274 5275 5275 5276 5276 5276 5277 5277 5278 5279 5279 5278 5278 5278 5278
5222 5222 5223 5224 5226 5228 5229 5232 5233 5235 5237 5239 5240 5240 5241 5242 5243 5244 5245 5246 5248 5250 5252 5254 5255 5257 5258 5260 5261 5262 5263 5263 5264 5264 5264 5264 5265 5265 5266 5265 5265 5264 5264